Location: Rancho Del Sol Observatory
(38.7214°N, 120.6350°W)
Time: 20:12:43
(UTC-08:00)

A-11 Canister half - Pass Details

Date: 04 February 2020
Orbit: 1517 x 1683 km, 47.2° (Epoch: 17 February)

Event Time Altitude Azimuth Distance (km) Brightness Sun altitude
Rises 20:22:17 0° 232° (SW) 4,836 12.2 -34.4°
Reaches altitude 10° 20:25:26 10° 231° (SW) 3,830 11.5 -35.0°
Enters shadow 20:34:34 78° 191° (S) 1,607 8.9 -36.7°
Maximum altitude 20:35:10 81° 146° (SE) 1,590 - -36.9°
Drops below altitude 10° 20:44:35 10° 61° (ENE) 3,715 - -38.7°
Sets 20:47:35 0° 60° (ENE) 4,686 - -39.2°
